Time,TemperatureF,DewpointF,PressureIn,WindDirection,WindDirectionDegrees,WindSpeedMPH,WindSpeedGustMPH,Humidity,HourlyPrecipIn,Conditions,Clouds,dailyrainin,SoftwareType,DateUTC
2013-03-02 00:02:00,53.5,48.1,30.26,NW,311,5.7,8.1,82,0.00,CLR,,0.00,WeatherDisplay:10.37,2013-03-02 06:02:00,
2013-03-02 00:07:00,53.1,47.7,30.26,WNW,298,4.4,5.8,82,0.00,CLR,,0.00,WeatherDisplay:10.37,2013-03-02 06:07:00,
2013-03-02 00:13:00,52.9,47.6,30.26,NW,315,4.8,5.8,82,0.00,CLR,,0.00,WeatherDisplay:10.37,2013-03-02 06:13:00,
2013-03-02 00:18:00,52.4,46.7,30.26,North,352,4.7,8.1,81,0.00,CLR,,0.00,WeatherDisplay:10.37,2013-03-02 06:18:00,
2013-03-02 00:23:00,52.0,46.3,30.26,North,360,5.4,10.4,81,0.00,CLR,,0.00,WeatherDisplay:10.37,2013-03-02 06:23:00,
2013-03-02 00:28:00,51.6,46.3,30.26,North,10,3.4,8.1,82,0.00,CLR,,0.00,WeatherDisplay:10.37,2013-03-02 06:28:00,
2013-03-02 00:33:00,51.6,46.6,30.26,NNW,344,3.1,5.8,83,0.00,CLR,,0.00,WeatherDisplay:10.37,2013-03-02 06:33:00,
2013-03-02 00:38:00,51.6,46.6,30.27,North,6,4.6,6.0,83,0.00,CLR,,0.00,WeatherDisplay:10.37,2013-03-02 06:38:00,
2013-03-02 00:43:00,51.7,47.0,30.27,NNE,18,3.3,5.8,84,0.00,CLR,,0.00,WeatherDisplay:10.37,2013-03-02 06:43:00,
2013-03-02 00:48:00,52.0,47.6,30.27,North,8,5.9,8.1,85,0.00,CLR,,0.00,WeatherDisplay:10.37,2013-03-02 06:48:00,
2013-03-02 00:53:00,52.0,47.6,30.27,North,4,2.6,6.9,85,0.00,CLR,,0.00,WeatherDisplay:10.37,2013-03-02 06:53:00,
2013-03-02 00:58:00,51.9,47.5,30.27,North,349,4.8,5.8,85,0.00,CLR,,0.00,WeatherDisplay:10.37,2013-03-02 06:58:00,
2013-03-02 01:03:00,51.8,47.7,30.27,North,3,5.2,8.1,86,0.00,CLR,,0.00,WeatherDisplay:10.37,2013-03-02 07:03:00,
2013-03-02 01:08:00,51.7,47.6,30.27,North,6,4.5,6.4,86,0.00,CLR,,0.00,WeatherDisplay:10.37,2013-03-02 07:08:00,
2013-03-02 01:13:00,51.7,48.0,30.27,North,8,4.1,8.1,87,0.00,CLR,,0.00,WeatherDisplay:10.37,2013-03-02 07:13:00,
2013-03-02 01:18:00,51.6,47.9,30.27,North,10,4.0,7.3,87,0.00,CLR,,0.00,WeatherDisplay:10.37,2013-03-02 07:18:00,
2013-03-02 01:23:00,51.6,48.2,30.27,NNE,14,3.1,7.3,88,0.00,CLR,,0.00,WeatherDisplay:10.37,2013-03-02 07:23:00,
2013-03-02 01:28:00,51.6,48.2,30.27,North,4,4.9,7.0,88,0.00,CLR,,0.00,WeatherDisplay:10.37,2013-03-02 07:28:00,
2013-03-02 01:33:00,51.7,48.6,30.28,North,357,7.7,11.7,89,0.00,CLR,,0.00,WeatherDisplay:10.37,2013-03-02 07:33:00,
2013-03-02 01:38:00,51.3,48.2,30.27,North,354,6.9,9.2,89,0.00,CLR,,0.00,WeatherDisplay:10.37,2013-03-02 07:38:00,
2013-03-02 01:43:00,51.3,48.5,30.28,NNW,346,6.7,9.6,90,0.00,CLR,,0.00,WeatherDisplay:10.37,2013-03-02 07:43:00,
2013-03-02 01:48:00,51.2,48.7,30.28,NNE,17,5.6,9.8,91,0.00,CLR,,0.00,WeatherDisplay:10.37,2013-03-02 07:48:00,
2013-03-02 01:53:00,51.2,48.7,30.28,NNW,340,6.5,9.2,91,0.00,CLR,,0.00,WeatherDisplay:10.37,2013-03-02 07:53:00,
2013-03-02 01:58:00,51.3,48.8,30.28,North,1,6.3,9.2,91,0.00,CLR,,0.00,WeatherDisplay:10.37,2013-03-02 07:58:00,
2013-03-02 02:03:00,51.3,48.8,30.28,NNE,16,1.4,4.6,91,0.00,CLR,,0.00,WeatherDisplay:10.37,2013-03-02 08:03:00,
2013-03-02 02:08:00,51.3,48.8,30.27,NE,38,3.8,6.9,91,0.00,CLR,,0.00,WeatherDisplay:10.37,2013-03-02 08:08:00,
2013-03-02 02:13:00,51.2,48.4,30.27,NNE,13,2.4,6.9,90,0.00,CLR,,0.00,WeatherDisplay:10.37,2013-03-02 08:13:00,
2013-03-02 02:18:00,51.2,48.4,30.27,NE,45,2.7,4.6,90,0.00,CLR,,0.00,WeatherDisplay:10.37,2013-03-02 08:18:00,
2013-03-02 02:23:00,51.2,48.4,30.27,North,360,3.0,5.8,90,0.00,CLR,,0.00,WeatherDisplay:10.37,2013-03-02 08:23:00,
2013-03-02 02:28:00,51.3,48.5,30.27,NNE,25,3.3,5.8,90,0.00,CLR,,0.00,WeatherDisplay:10.37,2013-03-02 08:28:00,
2013-03-02 02:33:00,51.5,48.7,30.27,North,8,3.4,6.0,90,0.00,CLR,,0.00,WeatherDisplay:10.37,2013-03-02 08:33:00,
2013-03-02 02:38:00,51.7,48.9,30.27,North,10,3.2,6.2,90,0.00,CLR,,0.00,WeatherDisplay:10.37,2013-03-02 08:38:00,
2013-03-02 02:43:00,51.6,48.5,30.27,North,3,4.0,5.2,89,0.00,CLR,,0.00,WeatherDisplay:10.37,2013-03-02 08:43:00,
2013-03-02 02:48:00,51.5,48.1,30.27,NNE,21,3.6,6.1,88,0.00,CLR,,0.00,WeatherDisplay:10.37,2013-03-02 08:48:00,
2013-03-02 02:53:00,51.3,47.9,30.27,North,356,4.6,6.3,88,0.00,CLR,,0.00,WeatherDisplay:10.37,2013-03-02 08:53:00,
2013-03-02 02:58:00,51.2,47.5,30.27,North,352,5.2,7.1,87,0.00,CLR,,0.00,WeatherDisplay:10.37,2013-03-02 08:58:00,
2013-03-02 03:03:00,50.8,47.1,30.28,North,360,7.0,9.2,87,0.00,CLR,,0.00,WeatherDisplay:10.37,2013-03-02 09:03:00,
2013-03-02 03:08:00,50.4,46.4,30.27,NNW,344,4.6,8.1,86,0.00,CLR,,0.00,WeatherDisplay:10.37,2013-03-02 09:08:00,
2013-03-02 03:13:00,50.5,46.5,30.28,NE,52,5.9,8.1,86,0.00,CLR,,0.00,WeatherDisplay:10.37,2013-03-02 09:13:00,
2013-03-02 03:18:00,50.6,46.3,30.27,NNW,347,5.8,9.2,85,0.00,CLR,,0.00,WeatherDisplay:10.37,2013-03-02 09:18:00,
2013-03-02 03:23:00,50.8,45.8,30.27,North,350,5.9,8.1,83,0.00,CLR,,0.00,WeatherDisplay:10.37,2013-03-02 09:23:00,
2013-03-02 03:28:00,50.9,45.6,30.27,NNW,347,5.4,7.1,82,0.00,CLR,,0.00,WeatherDisplay:10.37,2013-03-02 09:28:00,
2013-03-02 03:33:00,50.8,45.5,30.27,North,8,6.3,8.1,82,0.00,CLR,,0.00,WeatherDisplay:10.37,2013-03-02 09:33:00,
2013-03-02 03:38:00,50.6,45.3,30.27,North,353,5.5,7.7,82,0.00,CLR,,0.00,WeatherDisplay:10.37,2013-03-02 09:38:00,
2013-03-02 03:43:00,50.5,45.5,30.27,North,360,6.0,9.2,83,0.00,CLR,,0.00,WeatherDisplay:10.37,2013-03-02 09:43:00,
2013-03-02 03:48:00,50.4,45.4,30.28,NNW,339,5.4,7.4,83,0.00,CLR,,0.00,WeatherDisplay:10.37,2013-03-02 09:48:00,
2013-03-02 03:53:00,50.2,45.2,30.27,NNE,21,5.1,8.1,83,0.00,CLR,,0.00,WeatherDisplay:10.37,2013-03-02 09:53:00,
2013-03-02 03:58:00,50.0,45.0,30.27,North,3,5.3,8.1,83,0.00,CLR,,0.00,WeatherDisplay:10.37,2013-03-02 09:58:00,
2013-03-02 04:03:00,49.9,45.3,30.28,NNE,31,6.6,9.2,84,0.00,CLR,,0.00,WeatherDisplay:10.37,2013-03-02 10:03:00,
2013-03-02 04:09:00,49.8,44.8,30.28,North,354,5.0,9.2,83,0.00,CLR,,0.00,WeatherDisplay:10.37,2013-03-02 10:09:00,
2013-03-02 04:14:00,49.7,44.7,30.29,NNW,333,6.4,9.2,83,0.00,CLR,,0.00,WeatherDisplay:10.37,2013-03-02 10:14:00,
2013-03-02 04:19:00,49.7,44.4,30.29,NNW,344,6.1,9.2,82,0.00,CLR,,0.00,WeatherDisplay:10.37,2013-03-02 10:19:00,
2013-03-02 04:24:00,49.5,44.2,30.29,North,356,5.9,8.0,82,0.00,CLR,,0.00,WeatherDisplay:10.37,2013-03-02 10:24:00,
2013-03-02 04:29:00,49.1,43.8,30.30,NNW,329,6.9,9.2,82,0.00,CLR,,0.00,WeatherDisplay:10.37,2013-03-02 10:29:00,
2013-03-02 04:34:00,49.0,44.1,30.30,North,352,6.8,10.4,83,0.00,CLR,,0.00,WeatherDisplay:10.37,2013-03-02 10:34:00,
2013-03-02 04:39:00,49.0,43.7,30.29,North,350,7.7,11.2,82,0.00,CLR,,0.00,WeatherDisplay:10.37,2013-03-02 10:39:00,
2013-03-02 04:44:00,49.1,43.5,30.30,NNW,342,8.0,13.8,81,0.00,CLR,,0.00,WeatherDisplay:10.37,2013-03-02 10:44:00,
2013-03-02 04:50:00,49.4,43.5,30.30,NNW,340,6.3,9.2,80,0.00,CLR,,0.00,WeatherDisplay:10.37,2013-03-02 10:50:00,
2013-03-02 04:55:00,49.6,43.4,30.30,North,350,7.5,11.5,79,0.00,CLR,,0.00,WeatherDisplay:10.37,2013-03-02 10:55:00,
2013-03-02 05:00:00,49.6,43.0,30.30,NW,309,8.3,12.7,78,0.00,CLR,,0.00,WeatherDisplay:10.37,2013-03-02 11:00:00,
2013-03-02 05:05:00,49.8,43.2,30.30,NW,305,7.7,10.4,78,0.00,CLR,,0.00,WeatherDisplay:10.37,2013-03-02 11:05:00,
2013-03-02 05:10:00,49.7,43.5,30.31,NNW,330,8.4,11.6,79,0.00,CLR,,0.00,WeatherDisplay:10.37,2013-03-02 11:10:00,
2013-03-02 05:15:00,49.5,43.3,30.31,NNW,328,7.4,9.8,79,0.00,CLR,,0.00,WeatherDisplay:10.37,2013-03-02 11:15:00,
2013-03-02 05:20:00,49.3,43.4,30.31,NNW,346,8.0,14.8,80,0.00,CLR,,0.00,WeatherDisplay:10.37,2013-03-02 11:20:00,
2013-03-02 05:25:00,49.3,43.1,30.31,NNW,332,10.3,15.0,79,0.00,CLR,,0.00,WeatherDisplay:10.37,2013-03-02 11:25:00,
2013-03-02 05:30:00,49.4,42.8,30.32,NNW,339,7.6,10.4,78,0.00,CLR,,0.00,WeatherDisplay:10.37,2013-03-02 11:30:00,
2013-03-02 05:35:00,49.3,42.7,30.32,NNW,347,8.5,11.5,78,0.00,CLR,,0.00,WeatherDisplay:10.37,2013-03-02 11:35:00,
2013-03-02 05:41:00,49.1,42.5,30.32,NW,325,7.4,10.4,78,0.00,CLR,,0.00,WeatherDisplay:10.37,2013-03-02 11:41:00,
2013-03-02 05:46:00,49.0,42.4,30.32,NW,305,8.0,13.8,78,0.00,CLR,,0.00,WeatherDisplay:10.37,2013-03-02 11:46:00,
2013-03-02 05:51:00,48.8,42.2,30.33,NNW,344,6.2,10.8,78,0.00,CLR,,0.00,WeatherDisplay:10.37,2013-03-02 11:51:00,
2013-03-02 05:56:00,48.7,42.1,30.33,NW,323,8.5,12.4,78,0.00,CLR,,0.00,WeatherDisplay:10.37,2013-03-02 11:56:00,
2013-03-02 06:01:00,48.6,42.0,30.33,NW,322,7.8,10.7,78,0.00,CLR,,0.00,WeatherDisplay:10.37,2013-03-02 12:01:00,
2013-03-02 06:06:00,48.6,42.0,30.34,NW,318,8.7,15.0,78,0.00,CLR,,0.00,WeatherDisplay:10.37,2013-03-02 12:06:00,
2013-03-02 06:11:00,48.6,42.0,30.34,NW,305,6.8,10.7,78,0.00,CLR,,0.00,WeatherDisplay:10.37,2013-03-02 12:11:00,
2013-03-02 06:16:00,48.7,41.8,30.34,NNW,343,9.2,17.3,77,0.00,CLR,,0.00,WeatherDisplay:10.37,2013-03-02 12:16:00,
2013-03-02 06:21:00,49.0,41.4,30.35,NNW,339,10.3,19.6,75,0.00,CLR,,0.00,WeatherDisplay:10.37,2013-03-02 12:21:00,
2013-03-02 06:26:00,49.1,41.2,30.35,NNW,336,9.7,15.0,74,0.00,CLR,,0.00,WeatherDisplay:10.37,2013-03-02 12:26:00,
2013-03-02 06:31:00,49.1,40.8,30.35,NW,309,12.7,18.3,73,0.00,CLR,,0.00,WeatherDisplay:10.37,2013-03-02 12:31:00,
2013-03-02 06:36:00,49.0,40.0,30.35,North,0,10.4,22.1,71,0.00,CLR,,0.00,WeatherDisplay:10.37,2013-03-02 12:36:00,
2013-03-02 06:41:00,48.9,40.3,30.35,NNW,329,11.2,17.7,72,0.00,CLR,,0.00,WeatherDisplay:10.37,2013-03-02 12:41:00,
2013-03-02 06:46:00,48.7,39.7,30.36,North,350,11.7,18.8,71,0.00,CLR,,0.00,WeatherDisplay:10.37,2013-03-02 12:46:00,
2013-03-02 06:51:00,48.5,39.5,30.36,North,349,12.2,16.1,71,0.00,CLR,,0.00,WeatherDisplay:10.37,2013-03-02 12:51:00,
2013-03-02 06:56:00,48.3,39.3,30.36,NNW,335,9.4,15.0,71,0.00,CLR,,0.00,WeatherDisplay:10.37,2013-03-02 12:56:00,
2013-03-02 07:01:00,48.1,39.1,30.37,NNW,336,8.3,13.8,71,0.00,CLR,,0.00,WeatherDisplay:10.37,2013-03-02 13:01:00,
2013-03-02 07:06:00,48.1,39.5,30.37,NNE,25,8.0,16.1,72,0.00,CLR,,0.00,WeatherDisplay:10.37,2013-03-02 13:06:00,
2013-03-02 07:11:00,47.8,39.2,30.37,NW,315,10.5,16.1,72,0.00,CLR,,0.00,WeatherDisplay:10.37,2013-03-02 13:11:00,
2013-03-02 07:16:00,47.8,39.2,30.37,NNW,329,10.2,17.5,72,0.00,CLR,,0.00,WeatherDisplay:10.37,2013-03-02 13:16:00,
2013-03-02 07:21:00,47.8,39.2,30.38,North,357,9.7,16.1,72,0.00,CLR,,0.00,WeatherDisplay:10.37,2013-03-02 13:21:00,
2013-03-02 07:26:00,47.8,39.2,30.38,NNW,343,9.2,13.8,72,0.00,CLR,,0.00,WeatherDisplay:10.37,2013-03-02 13:26:00,
2013-03-02 07:31:00,47.7,39.1,30.38,NW,315,9.9,16.1,72,0.00,CLR,,0.00,WeatherDisplay:10.37,2013-03-02 13:31:00,
2013-03-02 07:36:00,47.9,38.9,30.39,North,10,10.2,16.1,71,0.00,CLR,,0.00,WeatherDisplay:10.37,2013-03-02 13:36:00,
2013-03-02 07:41:00,48.0,39.0,30.39,NNE,14,9.5,13.8,71,0.00,CLR,,0.00,WeatherDisplay:10.37,2013-03-02 13:41:00,
2013-03-02 07:46:00,48.2,39.2,30.39,North,352,10.6,17.3,71,0.00,CLR,,0.00,WeatherDisplay:10.37,2013-03-02 13:46:00,
2013-03-02 07:51:00,48.3,39.0,30.39,NNW,339,9.2,15.0,70,0.00,CLR,,0.00,WeatherDisplay:10.37,2013-03-02 13:51:00,
2013-03-02 07:56:00,48.6,39.3,30.39,NNE,13,9.5,15.0,70,0.00,CLR,,0.00,WeatherDisplay:10.37,2013-03-02 13:56:00,
2013-03-02 08:01:00,48.8,39.4,30.39,North,1,9.4,17.3,70,0.00,CLR,,0.00,WeatherDisplay:10.37,2013-03-02 14:01:00,
2013-03-02 08:06:00,49.1,39.4,30.40,North,8,9.8,18.4,69,0.00,CLR,,0.00,WeatherDisplay:10.37,2013-03-02 14:06:00,
2013-03-02 08:11:00,49.3,39.2,30.40,NNW,346,9.3,15.0,68,0.00,CLR,,0.00,WeatherDisplay:10.37,2013-03-02 14:11:00,
2013-03-02 08:16:00,49.5,39.4,30.41,NNW,332,11.0,19.9,68,0.00,CLR,,0.00,WeatherDisplay:10.37,2013-03-02 14:16:00,
2013-03-02 08:21:00,49.7,39.2,30.41,North,353,12.2,23.2,67,0.00,CLR,,0.00,WeatherDisplay:10.37,2013-03-02 14:21:00,
2013-03-02 08:26:00,49.9,39.0,30.41,North,352,15.2,25.2,66,0.00,CLR,,0.00,WeatherDisplay:10.37,2013-03-02 14:26:00,
2013-03-02 08:31:00,50.0,39.1,30.42,North,360,10.1,25.3,66,0.00,,,0.00,WeatherDisplay:10.37,2013-03-02 14:31:00,
2013-03-02 08:36:00,50.2,38.9,30.42,NNW,337,15.7,24.2,65,0.00,,,0.00,WeatherDisplay:10.37,2013-03-02 14:36:00,
2013-03-02 08:41:00,50.4,39.1,30.42,North,3,13.4,19.6,65,0.00,,,0.00,WeatherDisplay:10.37,2013-03-02 14:41:00,
2013-03-02 08:46:00,50.7,39.4,30.42,North,4,13.1,20.7,65,0.00,CLR,,0.00,WeatherDisplay:10.37,2013-03-02 14:46:00,
2013-03-02 08:51:00,50.9,38.7,30.42,NNW,346,15.1,24.2,63,0.00,,,0.00,WeatherDisplay:10.37,2013-03-02 14:51:00,
2013-03-02 08:56:00,50.9,38.3,30.42,NNW,343,14.5,19.6,62,0.00,,,0.00,WeatherDisplay:10.37,2013-03-02 14:56:00,
2013-03-02 09:01:00,51.1,38.5,30.42,NNW,329,13.0,23.0,62,0.00,,,0.00,WeatherDisplay:10.37,2013-03-02 15:01:00,
2013-03-02 09:06:00,51.2,38.6,30.42,North,359,13.2,23.0,62,0.00,CLR,,0.00,WeatherDisplay:10.37,2013-03-02 15:06:00,
2013-03-02 09:11:00,51.4,38.4,30.42,WNW,296,15.0,25.3,61,0.00,CLR,,0.00,WeatherDisplay:10.37,2013-03-02 15:11:00,
2013-03-02 09:16:00,51.6,38.2,30.42,NNW,344,18.0,27.6,60,0.00,,,0.00,WeatherDisplay:10.37,2013-03-02 15:16:00,
2013-03-02 09:21:00,51.8,38.3,30.43,North,354,14.6,21.9,60,0.00,,,0.00,WeatherDisplay:10.37,2013-03-02 15:21:00,
2013-03-02 09:26:00,52.0,38.5,30.43,North,357,11.6,18.8,60,0.00,,,0.00,WeatherDisplay:10.37,2013-03-02 15:26:00,
2013-03-02 09:31:00,52.4,37.6,30.43,NNW,344,13.6,19.6,57,0.00,CLR,,0.00,WeatherDisplay:10.37,2013-03-02 15:31:00,
2013-03-02 09:36:00,52.4,37.6,30.43,NNW,346,13.7,18.4,57,0.00,,,0.00,WeatherDisplay:10.37,2013-03-02 15:36:00,
2013-03-02 09:41:00,52.7,35.6,30.43,WNW,292,13.5,25.3,52,0.00,,,0.00,WeatherDisplay:10.37,2013-03-02 15:41:00,
2013-03-02 09:46:00,52.7,37.9,30.43,NNW,332,13.3,21.9,57,0.00,,,0.00,WeatherDisplay:10.37,2013-03-02 15:46:00,
2013-03-02 09:51:00,52.9,33.7,30.43,NNW,346,16.7,21.9,48,0.00,CLR,,0.00,WeatherDisplay:10.37,2013-03-02 15:51:00,
2013-03-02 09:56:00,53.0,33.8,30.43,North,356,13.3,18.5,48,0.00,,,0.00,WeatherDisplay:10.37,2013-03-02 15:56:00,
2013-03-02 10:01:00,53.4,34.2,30.43,North,1,15.9,21.0,48,0.00,,,0.00,WeatherDisplay:10.37,2013-03-02 16:01:00,
2013-03-02 10:06:00,53.3,34.1,30.43,North,4,10.4,22.1,48,0.00,,,0.00,WeatherDisplay:10.37,2013-03-02 16:06:00,
2013-03-02 10:11:00,53.4,33.7,30.42,NW,325,12.4,24.2,47,0.00,CLR,,0.00,WeatherDisplay:10.37,2013-03-02 16:11:00,
2013-03-02 10:16:00,53.5,32.7,30.43,NNW,337,16.2,21.8,45,0.00,CLR,,0.00,WeatherDisplay:10.37,2013-03-02 16:16:00,
2013-03-02 10:21:00,53.5,33.2,30.42,NNW,330,11.7,23.0,46,0.00,,,0.00,WeatherDisplay:10.37,2013-03-02 16:21:00,
2013-03-02 10:26:00,53.9,33.6,30.42,WNW,298,14.3,21.9,46,0.00,,,0.00,WeatherDisplay:10.37,2013-03-02 16:26:00,
2013-03-02 10:31:00,55.3,32.6,30.42,NNW,344,13.5,19.6,42,0.00,,,0.00,WeatherDisplay:10.37,2013-03-02 16:31:00,
2013-03-02 10:36:00,53.5,33.2,30.42,NW,326,13.7,21.4,46,0.00,CLR,,0.00,WeatherDisplay:10.37,2013-03-02 16:36:00,
2013-03-02 10:41:00,56.0,32.0,30.42,NNE,13,12.8,23.0,40,0.00,,,0.00,WeatherDisplay:10.37,2013-03-02 16:41:00,
2013-03-02 10:46:00,55.8,33.0,30.42,NNW,333,9.3,26.5,42,0.00,,,0.00,WeatherDisplay:10.37,2013-03-02 16:46:00,
2013-03-02 10:51:00,55.5,32.8,30.42,NW,325,14.6,21.1,42,0.00,,,0.00,WeatherDisplay:10.37,2013-03-02 16:51:00,
2013-03-02 10:56:00,55.1,32.4,30.42,NW,326,16.6,26.8,42,0.00,CLR,,0.00,WeatherDisplay:10.37,2013-03-02 16:56:00,
2013-03-02 11:01:00,55.1,33.6,30.42,West,280,9.1,26.8,44,0.00,,,0.00,WeatherDisplay:10.37,2013-03-02 17:01:00,
2013-03-02 11:06:00,55.2,31.3,30.42,North,356,12.2,23.0,40,0.00,,,0.00,WeatherDisplay:10.37,2013-03-02 17:06:00,
2013-03-02 11:11:00,55.1,32.4,30.42,West,275,13.0,18.4,42,0.00,,,0.00,WeatherDisplay:10.37,2013-03-02 17:11:00,
2013-03-02 11:16:00,55.5,32.8,30.42,NNW,333,13.4,22.8,42,0.00,CLR,,0.00,WeatherDisplay:10.37,2013-03-02 17:16:00,
2013-03-02 11:21:00,55.8,32.4,30.42,North,4,14.4,23.6,41,0.00,CLR,,0.00,WeatherDisplay:10.37,2013-03-02 17:21:00,
2013-03-02 11:26:00,56.0,33.2,30.42,NW,318,12.4,23.0,42,0.00,CLR,,0.00,WeatherDisplay:10.37,2013-03-02 17:26:00,
2013-03-02 11:31:00,56.3,33.5,30.42,NW,308,10.4,22.1,42,0.00,CLR,,0.00,WeatherDisplay:10.37,2013-03-02 17:31:00,
2013-03-02 11:36:00,56.9,34.0,30.42,NW,316,9.7,17.3,42,0.00,CLR,,0.00,WeatherDisplay:10.37,2013-03-02 17:36:00,
2013-03-02 11:41:00,57.1,32.4,30.42,NW,318,14.4,21.0,39,0.00,CLR,,0.00,WeatherDisplay:10.37,2013-03-02 17:41:00,
2013-03-02 11:46:00,57.2,31.8,30.42,North,356,12.9,21.9,38,0.00,CLR,,0.00,WeatherDisplay:10.37,2013-03-02 17:46:00,
2013-03-02 11:51:00,57.4,31.3,30.41,NW,322,13.0,23.0,37,0.00,CLR,,0.00,WeatherDisplay:10.37,2013-03-02 17:51:00,
2013-03-02 11:56:00,57.3,30.5,30.41,NNW,335,11.9,21.9,36,0.00,CLR,,0.00,WeatherDisplay:10.37,2013-03-02 17:56:00,
2013-03-02 12:01:00,57.8,31.0,30.41,NW,305,10.6,23.3,36,0.00,CLR,,0.00,WeatherDisplay:10.37,2013-03-02 18:01:00,
2013-03-02 12:06:00,57.9,30.4,30.41,NNW,343,10.7,17.3,35,0.00,,,0.00,WeatherDisplay:10.37,2013-03-02 18:06:00,
2013-03-02 12:11:00,58.3,30.0,30.40,NW,320,13.2,20.5,34,0.00,,,0.00,WeatherDisplay:10.37,2013-03-02 18:11:00,
2013-03-02 12:16:00,58.7,31.1,30.40,NW,322,10.7,19.6,35,0.00,,,0.00,WeatherDisplay:10.37,2013-03-02 18:16:00,
2013-03-02 12:21:00,59.0,29.2,30.40,NW,320,12.5,20.7,32,0.00,CLR,,0.00,WeatherDisplay:10.37,2013-03-02 18:21:00,
2013-03-02 12:26:00,58.9,28.3,30.40,NW,326,13.0,21.9,31,0.00,,,0.00,WeatherDisplay:10.37,2013-03-02 18:26:00,
2013-03-02 12:31:00,59.0,29.2,30.39,North,356,13.9,25.5,32,0.00,,,0.00,WeatherDisplay:10.37,2013-03-02 18:31:00,
2013-03-02 12:36:00,59.2,28.5,30.39,NNW,333,14.4,21.9,31,0.00,,,0.00,WeatherDisplay:10.37,2013-03-02 18:36:00,
2013-03-02 12:41:00,59.1,29.2,30.39,WNW,292,10.5,17.3,32,0.00,CLR,,0.00,WeatherDisplay:10.37,2013-03-02 18:41:00,
2013-03-02 12:46:00,59.4,27.9,30.39,NNW,340,14.1,22.1,30,0.00,CLR,,0.00,WeatherDisplay:10.37,2013-03-02 18:46:00,
2013-03-02 12:51:00,59.4,27.9,30.38,NW,326,15.0,23.0,30,0.00,CLR,,0.00,WeatherDisplay:10.37,2013-03-02 18:51:00,
2013-03-02 12:56:00,59.4,28.7,30.38,NW,325,13.2,23.1,31,0.00,CLR,,0.00,WeatherDisplay:10.37,2013-03-02 18:56:00,
2013-03-02 13:02:00,59.8,29.1,30.38,NNW,339,8.3,14.5,31,0.00,,,0.00,WeatherDisplay:10.37,2013-03-02 19:02:00,
2013-03-02 13:07:00,59.8,28.3,30.38,NW,311,11.7,19.6,30,0.00,,,0.00,WeatherDisplay:10.37,2013-03-02 19:07:00,
2013-03-02 13:12:00,60.2,27.8,30.37,NW,316,10.2,27.6,29,0.00,,,0.00,WeatherDisplay:10.37,2013-03-02 19:12:00,
2013-03-02 13:17:00,60.3,27.9,30.37,NW,311,10.6,19.6,29,0.00,CLR,,0.00,WeatherDisplay:10.37,2013-03-02 19:17:00,
2013-03-02 13:22:00,60.5,27.2,30.36,NNW,328,17.9,27.0,28,0.00,,,0.00,WeatherDisplay:10.37,2013-03-02 19:22:00,
2013-03-02 13:27:00,60.8,28.3,30.36,NNW,330,12.2,15.7,29,0.00,,,0.00,WeatherDisplay:10.37,2013-03-02 19:27:00,
2013-03-02 13:32:00,60.8,29.1,30.36,North,3,9.3,16.8,30,0.00,,,0.00,WeatherDisplay:10.37,2013-03-02 19:32:00,
2013-03-02 13:37:00,61.3,27.9,30.35,NW,318,13.7,19.9,28,0.00,CLR,,0.00,WeatherDisplay:10.37,2013-03-02 19:37:00,
2013-03-02 13:42:00,61.4,27.1,30.35,NNW,343,12.7,24.1,27,0.00,CLR,,0.00,WeatherDisplay:10.37,2013-03-02 19:42:00,
2013-03-02 13:47:00,61.6,27.3,30.34,NNW,344,11.3,17.3,27,0.00,CLR,,0.00,WeatherDisplay:10.37,2013-03-02 19:47:00,
2013-03-02 13:52:00,61.8,28.3,30.34,NW,323,14.9,27.4,28,0.00,CLR,,0.00,WeatherDisplay:10.37,2013-03-02 19:52:00,
2013-03-02 13:57:00,61.6,27.3,30.34,NNW,330,10.6,18.9,27,0.00,,,0.00,WeatherDisplay:10.37,2013-03-02 19:57:00,
2013-03-02 14:02:00,61.6,28.1,30.34,NW,312,12.4,19.3,28,0.00,,,0.00,WeatherDisplay:10.37,2013-03-02 20:02:00,
2013-03-02 14:07:00,61.7,28.2,30.34,NNW,342,9.7,20.7,28,0.00,,,0.00,WeatherDisplay:10.37,2013-03-02 20:07:00,
2013-03-02 14:12:00,62.1,28.6,30.34,NE,35,11.6,23.5,28,0.00,CLR,,0.00,WeatherDisplay:10.37,2013-03-02 20:12:00,
2013-03-02 14:17:00,62.5,27.1,30.33,NNW,346,15.3,25.3,26,0.00,,,0.00,WeatherDisplay:10.37,2013-03-02 20:17:00,
2013-03-02 14:22:00,62.2,28.7,30.33,NNW,344,12.6,20.7,28,0.00,,,0.00,WeatherDisplay:10.37,2013-03-02 20:22:00,
2013-03-02 14:27:00,62.4,28.8,30.32,North,4,8.6,16.1,28,0.00,,,0.00,WeatherDisplay:10.37,2013-03-02 20:27:00,
2013-03-02 14:32:00,62.6,28.1,30.32,NNW,336,10.7,16.1,27,0.00,CLR,,0.00,WeatherDisplay:10.37,2013-03-02 20:32:00,
2013-03-02 14:37:00,62.5,28.9,30.32,NNW,337,10.5,16.1,28,0.00,CLR,,0.00,WeatherDisplay:10.37,2013-03-02 20:37:00,
2013-03-02 14:42:00,62.8,30.9,30.32,NNW,336,8.9,19.6,30,0.00,CLR,,0.00,WeatherDisplay:10.37,2013-03-02 20:42:00,
2013-03-02 14:47:00,62.7,26.3,30.32,NW,315,10.8,19.5,25,0.00,CLR,,0.00,WeatherDisplay:10.37,2013-03-02 20:47:00,
2013-03-02 14:52:00,62.9,28.4,30.32,NW,322,9.9,15.2,27,0.00,CLR,,0.00,WeatherDisplay:10.37,2013-03-02 20:52:00,
2013-03-02 14:57:00,63.2,25.8,30.32,NNW,340,16.2,25.3,24,0.00,CLR,,0.00,WeatherDisplay:10.37,2013-03-02 20:57:00,
2013-03-02 15:02:00,63.2,25.8,30.32,NNW,339,13.6,19.6,24,0.00,CLR,,0.00,WeatherDisplay:10.37,2013-03-02 21:02:00,
2013-03-02 15:07:00,63.2,25.8,30.31,West,268,13.0,26.5,24,0.00,,,0.00,WeatherDisplay:10.37,2013-03-02 21:07:00,
2013-03-02 15:12:00,63.4,25.9,30.31,NNW,335,12.9,18.4,24,0.00,,,0.00,WeatherDisplay:10.37,2013-03-02 21:12:00,
2013-03-02 15:17:00,63.4,25.9,30.31,NW,323,14.1,21.3,24,0.00,,,0.00,WeatherDisplay:10.37,2013-03-02 21:17:00,
2013-03-02 15:22:00,63.5,27.0,30.30,NW,323,8.3,16.1,25,0.00,CLR,,0.00,WeatherDisplay:10.37,2013-03-02 21:22:00,
2013-03-02 15:27:00,63.7,26.2,30.30,NW,315,12.4,21.9,24,0.00,CLR,,0.00,WeatherDisplay:10.37,2013-03-02 21:27:00,
2013-03-02 15:32:00,63.7,25.2,30.30,WNW,291,13.4,20.2,23,0.00,CLR,,0.00,WeatherDisplay:10.37,2013-03-02 21:32:00,
2013-03-02 15:37:00,63.8,25.3,30.30,NNW,336,14.0,22.1,23,0.00,CLR,,0.00,WeatherDisplay:10.37,2013-03-02 21:37:00,
2013-03-02 15:42:00,64.2,25.6,30.30,WNW,285,11.2,16.1,23,0.00,CLR,,0.00,WeatherDisplay:10.37,2013-03-02 21:42:00,
2013-03-02 15:47:00,64.5,25.8,30.30,NNW,328,12.8,20.6,23,0.00,CLR,,0.00,WeatherDisplay:10.37,2013-03-02 21:47:00,
2013-03-02 15:52:00,64.5,26.9,30.30,NNW,344,13.0,21.9,24,0.00,CLR,,0.00,WeatherDisplay:10.37,2013-03-02 21:52:00,
2013-03-02 15:57:00,64.7,27.0,30.30,NW,325,9.1,12.7,24,0.00,CLR,,0.00,WeatherDisplay:10.37,2013-03-02 21:57:00,
2013-03-02 16:02:00,64.6,27.0,30.30,NNW,336,12.0,15.9,24,0.00,CLR,,0.00,WeatherDisplay:10.37,2013-03-02 22:02:00,
2013-03-02 16:07:00,64.7,29.0,30.30,NNW,339,10.6,19.6,26,0.00,CLR,,0.00,WeatherDisplay:10.37,2013-03-02 22:07:00,
2013-03-02 16:12:00,64.6,27.0,30.30,NNW,329,9.7,11.5,24,0.00,CLR,,0.00,WeatherDisplay:10.37,2013-03-02 22:12:00,
2013-03-02 16:17:00,64.9,29.2,30.29,NNW,333,10.8,20.1,26,0.00,CLR,,0.00,WeatherDisplay:10.37,2013-03-02 22:17:00,
2013-03-02 16:22:00,65.0,26.3,30.29,NNW,329,11.7,16.6,23,0.00,CLR,,0.00,WeatherDisplay:10.37,2013-03-02 22:22:00,
2013-03-02 16:27:00,64.8,28.1,30.29,NNE,14,10.7,15.2,25,0.00,CLR,,0.00,WeatherDisplay:10.37,2013-03-02 22:27:00,
2013-03-02 16:32:00,64.7,28.0,30.29,NNW,343,8.8,17.3,25,0.00,CLR,,0.00,WeatherDisplay:10.37,2013-03-02 22:32:00,
2013-03-02 16:37:00,64.6,28.9,30.29,NW,313,7.7,13.8,26,0.00,CLR,,0.00,WeatherDisplay:10.37,2013-03-02 22:37:00,
2013-03-02 16:42:00,64.7,29.0,30.29,NNW,335,9.3,19.3,26,0.00,CLR,,0.00,WeatherDisplay:10.37,2013-03-02 22:42:00,
2013-03-02 16:47:00,64.7,29.0,30.29,NNW,340,8.2,16.1,26,0.00,CLR,,0.00,WeatherDisplay:10.37,2013-03-02 22:47:00,
2013-03-02 16:53:00,64.9,28.2,30.28,North,350,9.7,12.7,25,0.00,CLR,,0.00,WeatherDisplay:10.37,2013-03-02 22:53:00,
2013-03-02 16:58:00,64.8,29.1,30.29,NNE,21,9.5,13.8,26,0.00,CLR,,0.00,WeatherDisplay:10.37,2013-03-02 22:58:00,
2013-03-02 17:03:00,64.8,29.1,30.29,North,352,10.4,15.6,26,0.00,CLR,,0.00,WeatherDisplay:10.37,2013-03-02 23:03:00,
2013-03-02 17:08:00,64.7,29.0,30.29,North,356,8.3,15.0,26,0.00,CLR,,0.00,WeatherDisplay:10.37,2013-03-02 23:08:00,
2013-03-02 17:13:00,64.4,28.7,30.29,NNW,339,11.5,16.8,26,0.00,CLR,,0.00,WeatherDisplay:10.37,2013-03-02 23:13:00,
2013-03-02 17:18:00,64.4,29.7,30.29,NNW,342,8.6,14.4,27,0.00,CLR,,0.00,WeatherDisplay:10.37,2013-03-02 23:18:00,
2013-03-02 17:23:00,64.6,28.9,30.29,NNW,337,11.2,15.4,26,0.00,CLR,,0.00,WeatherDisplay:10.37,2013-03-02 23:23:00,
2013-03-02 17:28:00,64.6,28.9,30.29,NNE,13,5.5,13.8,26,0.00,CLR,,0.00,WeatherDisplay:10.37,2013-03-02 23:28:00,
2013-03-02 17:33:00,64.3,28.7,30.29,North,7,11.3,17.4,26,0.00,CLR,,0.00,WeatherDisplay:10.37,2013-03-02 23:33:00,
2013-03-02 17:38:00,64.2,29.5,30.29,North,4,9.6,12.1,27,0.00,CLR,,0.00,WeatherDisplay:10.37,2013-03-02 23:38:00,
2013-03-02 17:43:00,64.1,28.5,30.29,North,7,6.8,12.7,26,0.00,CLR,,0.00,WeatherDisplay:10.37,2013-03-02 23:43:00,
2013-03-02 17:48:00,63.9,29.2,30.29,NNW,344,7.9,13.8,27,0.00,CLR,,0.00,WeatherDisplay:10.37,2013-03-02 23:48:00,
2013-03-02 17:53:00,63.7,30.0,30.29,North,6,7.6,12.6,28,0.00,CLR,,0.00,WeatherDisplay:10.37,2013-03-02 23:53:00,
2013-03-02 17:58:00,63.8,30.0,30.29,NNE,25,5.2,9.2,28,0.00,CLR,,0.00,WeatherDisplay:10.37,2013-03-02 23:58:00,
2013-03-02 18:03:00,63.6,29.9,30.30,NNW,339,3.6,13.8,28,0.00,CLR,,0.00,WeatherDisplay:10.37,2013-03-03 00:03:00,
2013-03-02 18:08:00,63.4,30.6,30.30,NNW,347,6.1,10.4,29,0.00,CLR,,0.00,WeatherDisplay:10.37,2013-03-03 00:08:00,
2013-03-02 18:13:00,63.2,30.4,30.30,North,3,6.2,10.5,29,0.00,CLR,,0.00,WeatherDisplay:10.37,2013-03-03 00:13:00,
2013-03-02 18:18:00,62.9,31.0,30.30,NNE,14,5.6,10.5,30,0.00,CLR,,0.00,WeatherDisplay:10.37,2013-03-03 00:18:00,
2013-03-02 18:23:00,62.5,31.4,30.30,NNW,346,4.1,5.7,31,0.00,CLR,,0.00,WeatherDisplay:10.37,2013-03-03 00:23:00,
2013-03-02 18:28:00,62.2,32.7,30.30,NE,35,4.6,8.5,33,0.00,CLR,,0.00,WeatherDisplay:10.37,2013-03-03 00:28:00,
2013-03-02 18:33:00,61.9,31.7,30.30,North,0,5.1,6.9,32,0.00,CLR,,0.00,WeatherDisplay:10.37,2013-03-03 00:33:00,
2013-03-02 18:39:00,61.5,32.8,30.30,North,359,3.4,6.9,34,0.00,CLR,,0.00,WeatherDisplay:10.37,2013-03-03 00:39:00,
2013-03-02 18:44:00,61.2,34.0,30.30,NNE,16,3.8,6.9,36,0.00,CLR,,0.00,WeatherDisplay:10.37,2013-03-03 00:44:00,
2013-03-02 18:49:00,60.8,33.0,30.30,North,4,3.7,4.8,35,0.00,CLR,,0.00,WeatherDisplay:10.37,2013-03-03 00:49:00,
2013-03-02 18:54:00,60.4,34.0,30.30,NE,35,4.3,6.9,37,0.00,CLR,,0.00,WeatherDisplay:10.37,2013-03-03 00:54:00,
2013-03-02 18:59:00,59.8,33.5,30.30,NE,35,4.1,6.9,37,0.00,CLR,,0.00,WeatherDisplay:10.37,2013-03-03 00:59:00,
2013-03-02 19:04:00,59.5,33.9,30.30,NNE,23,4.7,8.5,38,0.00,CLR,,0.00,WeatherDisplay:10.37,2013-03-03 01:04:00,
2013-03-02 19:09:00,59.4,33.8,30.30,ENE,59,5.2,9.6,38,0.00,CLR,,0.00,WeatherDisplay:10.37,2013-03-03 01:09:00,
2013-03-02 19:14:00,59.3,35.6,30.30,NE,49,5.8,8.1,41,0.00,CLR,,0.00,WeatherDisplay:10.37,2013-03-03 01:14:00,
2013-03-02 19:19:00,59.1,37.2,30.30,ENE,73,5.1,8.1,44,0.00,CLR,,0.00,WeatherDisplay:10.37,2013-03-03 01:19:00,
2013-03-02 19:24:00,58.9,37.0,30.30,NE,45,5.4,8.1,44,0.00,CLR,,0.00,WeatherDisplay:10.37,2013-03-03 01:24:00,
2013-03-02 19:29:00,58.7,35.7,30.30,ENE,62,4.1,8.1,42,0.00,CLR,,0.00,WeatherDisplay:10.37,2013-03-03 01:29:00,
2013-03-02 19:34:00,58.6,36.2,30.30,NE,49,4.7,8.6,43,0.00,CLR,,0.00,WeatherDisplay:10.37,2013-03-03 01:34:00,
2013-03-02 19:39:00,58.5,37.8,30.30,NNE,30,6.1,11.5,46,0.00,CLR,,0.00,WeatherDisplay:10.37,2013-03-03 01:39:00,
2013-03-02 19:44:00,58.5,39.9,30.30,NE,41,7.5,9.9,50,0.00,CLR,,0.00,WeatherDisplay:10.37,2013-03-03 01:44:00,
2013-03-02 19:49:00,58.5,41.9,30.30,NE,52,6.0,10.4,54,0.00,CLR,,0.00,WeatherDisplay:10.37,2013-03-03 01:49:00,
2013-03-02 19:54:00,58.4,41.3,30.31,NNE,28,7.2,10.4,53,0.00,CLR,,0.00,WeatherDisplay:10.37,2013-03-03 01:54:00,
2013-03-02 19:59:00,58.4,40.8,30.31,NE,38,5.9,9.2,52,0.00,CLR,,0.00,WeatherDisplay:10.37,2013-03-03 01:59:00,
2013-03-02 20:04:00,58.3,40.2,30.31,ENE,69,4.3,8.1,51,0.00,CLR,,0.00,WeatherDisplay:10.37,2013-03-03 02:04:00,
2013-03-02 20:09:00,58.2,39.6,30.31,NNE,25,5.4,9.2,50,0.00,CLR,,0.00,WeatherDisplay:10.37,2013-03-03 02:09:00,
2013-03-02 20:14:00,58.0,41.0,30.31,NE,52,6.6,8.1,53,0.00,CLR,,0.00,WeatherDisplay:10.37,2013-03-03 02:14:00,
2013-03-02 20:20:00,58.0,41.4,30.31,NE,42,8.5,11.6,54,0.00,CLR,,0.00,WeatherDisplay:10.37,2013-03-03 02:20:00,
2013-03-02 20:25:00,58.1,41.5,30.31,East,80,7.8,10.4,54,0.00,CLR,,0.00,WeatherDisplay:10.37,2013-03-03 02:25:00,
2013-03-02 20:30:00,58.0,41.9,30.31,NE,55,7.3,11.5,55,0.00,CLR,,0.00,WeatherDisplay:10.37,2013-03-03 02:30:00,
2013-03-02 20:35:00,57.8,41.3,30.31,ENE,71,8.0,10.4,54,0.00,CLR,,0.00,WeatherDisplay:10.37,2013-03-03 02:35:00,
2013-03-02 20:40:00,57.7,40.7,30.31,ENE,72,8.0,13.0,53,0.00,CLR,,0.00,WeatherDisplay:10.37,2013-03-03 02:40:00,
2013-03-02 20:45:00,57.5,40.0,30.31,ENE,68,7.9,12.7,52,0.00,CLR,,0.00,WeatherDisplay:10.37,2013-03-03 02:45:00,
2013-03-02 20:50:00,57.4,39.9,30.32,ENE,76,5.7,9.2,52,0.00,CLR,,0.00,WeatherDisplay:10.37,2013-03-03 02:50:00,
2013-03-02 20:55:00,57.2,40.2,30.32,NE,55,5.7,7.3,53,0.00,CLR,,0.00,WeatherDisplay:10.37,2013-03-03 02:55:00,
2013-03-02 21:00:00,57.2,40.7,30.32,ENE,68,6.3,8.4,54,0.00,CLR,,0.00,WeatherDisplay:10.37,2013-03-03 03:00:00,
2013-03-02 21:05:00,57.0,40.0,30.31,East,85,7.0,9.2,53,0.00,CLR,,0.00,WeatherDisplay:10.37,2013-03-03 03:05:00,
2013-03-02 21:10:00,56.8,40.3,30.31,ENE,73,7.2,9.2,54,0.00,CLR,,0.00,WeatherDisplay:10.37,2013-03-03 03:10:00,
2013-03-02 21:15:00,56.6,40.6,30.32,ENE,73,6.8,9.2,55,0.00,CLR,,0.00,WeatherDisplay:10.37,2013-03-03 03:15:00,
2013-03-02 21:20:00,56.5,40.5,30.32,ENE,76,7.4,9.2,55,0.00,CLR,,0.00,WeatherDisplay:10.37,2013-03-03 03:20:00,
2013-03-02 21:25:00,56.3,40.3,30.32,ENE,59,7.4,9.6,55,0.00,CLR,,0.00,WeatherDisplay:10.37,2013-03-03 03:25:00,
2013-03-02 21:30:00,56.3,40.3,30.32,ENE,61,5.9,9.2,55,0.00,CLR,,0.00,WeatherDisplay:10.37,2013-03-03 03:30:00,
2013-03-02 21:35:00,56.2,40.7,30.32,ENE,75,8.0,10.8,56,0.00,CLR,,0.00,WeatherDisplay:10.37,2013-03-03 03:35:00,
2013-03-02 21:40:00,56.2,40.7,30.32,ENE,68,7.5,10.4,56,0.00,CLR,,0.00,WeatherDisplay:10.37,2013-03-03 03:40:00,
2013-03-02 21:45:00,56.1,40.6,30.32,NE,49,8.4,10.4,56,0.00,CLR,,0.00,WeatherDisplay:10.37,2013-03-03 03:45:00,
2013-03-02 21:50:00,56.0,40.5,30.32,ENE,69,6.2,10.4,56,0.00,CLR,,0.00,WeatherDisplay:10.37,2013-03-03 03:50:00,
2013-03-02 21:55:00,56.0,41.4,30.33,East,83,5.8,8.3,58,0.00,CLR,,0.00,WeatherDisplay:10.37,2013-03-03 03:55:00,
2013-03-02 22:00:00,55.9,41.8,30.32,ENE,65,5.7,6.9,59,0.00,CLR,,0.00,WeatherDisplay:10.37,2013-03-03 04:00:00,
2013-03-02 22:05:00,55.9,42.2,30.32,ENE,76,3.7,4.7,60,0.00,CLR,,0.00,WeatherDisplay:10.37,2013-03-03 04:05:00,
2013-03-02 22:10:00,55.8,43.0,30.32,East,83,4.5,6.9,62,0.00,CLR,,0.00,WeatherDisplay:10.37,2013-03-03 04:10:00,
2013-03-02 22:15:00,55.7,43.3,30.32,East,96,5.3,6.9,63,0.00,CLR,,0.00,WeatherDisplay:10.37,2013-03-03 04:15:00,
2013-03-02 22:20:00,55.6,43.6,30.32,East,80,5.6,8.1,64,0.00,CLR,,0.00,WeatherDisplay:10.37,2013-03-03 04:20:00,
2013-03-02 22:25:00,55.5,43.5,30.32,ENE,68,6.1,8.1,64,0.00,CLR,,0.00,WeatherDisplay:10.37,2013-03-03 04:25:00,
2013-03-02 22:30:00,55.5,43.9,30.32,East,80,6.2,8.1,65,0.00,CLR,,0.00,WeatherDisplay:10.37,2013-03-03 04:30:00,
2013-03-02 22:35:00,55.4,43.4,30.32,ENE,75,6.2,8.1,64,0.00,CLR,,0.00,WeatherDisplay:10.37,2013-03-03 04:35:00,
2013-03-02 22:40:00,55.4,43.4,30.32,ENE,72,6.8,8.1,64,0.00,CLR,,0.00,WeatherDisplay:10.37,2013-03-03 04:40:00,
2013-03-02 22:45:00,55.3,43.3,30.31,ENE,65,8.0,9.9,64,0.00,CLR,,0.00,WeatherDisplay:10.37,2013-03-03 04:45:00,
2013-03-02 22:50:00,55.3,43.3,30.31,East,79,6.5,8.1,64,0.00,CLR,,0.00,WeatherDisplay:10.37,2013-03-03 04:50:00,
2013-03-02 22:55:00,55.3,43.3,30.31,ENE,68,7.0,9.1,64,0.00,CLR,,0.00,WeatherDisplay:10.37,2013-03-03 04:55:00,
2013-03-02 23:00:00,55.2,43.2,30.31,NE,56,8.1,9.9,64,0.00,CLR,,0.00,WeatherDisplay:10.37,2013-03-03 05:00:00,
2013-03-02 23:01:00,55.2,43.2,30.31,ENE,68,8.0,9.7,64,0.00,CLR,,0.00,WeatherDisplay:10.37,2013-03-03 05:01:00,
2013-03-02 23:06:00,55.2,43.2,30.31,ENE,66,8.1,10.4,64,0.00,CLR,,0.00,WeatherDisplay:10.37,2013-03-03 05:06:00,
2013-03-02 23:11:00,55.2,42.8,30.31,ENE,62,8.7,11.5,63,0.00,CLR,,0.00,WeatherDisplay:10.37,2013-03-03 05:11:00,
2013-03-02 23:16:00,55.3,42.9,30.31,NE,54,8.5,10.4,63,0.00,CLR,,0.00,WeatherDisplay:10.37,2013-03-03 05:16:00,
2013-03-02 23:21:00,55.2,42.8,30.31,ENE,72,6.2,7.0,63,0.00,CLR,,0.00,WeatherDisplay:10.37,2013-03-03 05:21:00,
2013-03-02 23:26:00,55.2,43.2,30.31,ENE,75,5.4,8.1,64,0.00,CLR,,0.00,WeatherDisplay:10.37,2013-03-03 05:26:00,
2013-03-02 23:31:00,55.2,43.2,30.31,ENE,68,5.3,6.9,64,0.00,CLR,,0.00,WeatherDisplay:10.37,2013-03-03 05:31:00,
2013-03-02 23:36:00,55.2,43.2,30.31,East,83,4.8,6.9,64,0.00,CLR,,0.00,WeatherDisplay:10.37,2013-03-03 05:36:00,
2013-03-02 23:41:00,55.1,43.1,30.31,ENE,69,2.2,3.5,64,0.00,CLR,,0.00,WeatherDisplay:10.37,2013-03-03 05:41:00,
2013-03-02 23:47:00,55.1,43.5,30.31,ESE,102,3.9,5.8,65,0.00,CLR,,0.00,WeatherDisplay:10.37,2013-03-03 05:47:00,
2013-03-02 23:52:00,55.1,43.5,30.31,ESE,119,3.6,5.8,65,0.00,CLR,,0.00,WeatherDisplay:10.37,2013-03-03 05:52:00,
2013-03-02 23:57:00,54.9,43.4,30.30,ESE,102,3.5,5.8,65,0.00,CLR,,0.00,WeatherDisplay:10.37,2013-03-03 05:57:00,